• în România
  • Lista ţărilor
  • Pe 7 zile
  • Temperatura apei
  • Hartă satelitară
  • Meteo pe hartă
  • Widget-uri
  • user-avatar
    Intrare

    Meteo pe oră la Abomey

    Astăzi, 23 Septembrie, Duminică

    Timp Temperatura Precipitaţii Vânt Presiune Umiditate
    00:00 +25°C° 0 mm 1 m/s 739 mmHg 94%
    01:00 +24°C° 0 mm 1 m/s 739 mmHg 95%
    02:00 +24°C° 0 mm 1 m/s 739 mmHg 95%
    03:00 +24°C° 0 mm 1 m/s 738 mmHg 95%
    04:00 +24°C° 0 mm 1 m/s 739 mmHg 95%
    05:00 +24°C° 0 mm 1 m/s 739 mmHg 95%
    06:00 +24°C° 0 mm 1 m/s 739 mmHg 95%
    07:00 +25°C° 0 mm 1 m/s 740 mmHg 90%
    08:00 +27°C° 0 mm 1 m/s 740 mmHg 84%
    09:00 +28°C° 0 mm 2 m/s 740 mmHg 79%
    10:00 +29°C° 0 mm 2 m/s 740 mmHg 76%
    11:00 +30°C° 0 mm 2 m/s 740 mmHg 73%
    12:00 +30°C° 0 mm 2 m/s 739 mmHg 70%
    13:00 +30°C° 0.1 mm 2 m/s 739 mmHg 72%
    14:00 +30°C° 0.1 mm 3 m/s 738 mmHg 73%
    15:00 +30°C° 0.1 mm 3 m/s 737 mmHg 74%
    16:00 +29°C° 0 mm 2 m/s 738 mmHg 77%
    17:00 +28°C° 0 mm 2 m/s 738 mmHg 81%
    18:00 +27°C° 0 mm 2 m/s 738 mmHg 84%
    19:00 +26°C° 0 mm 2 m/s 738 mmHg 85%
    20:00 +26°C° 0 mm 1 m/s 739 mmHg 86%
    21:00 +25°C° 0 mm 1 m/s 739 mmHg 87%
    22:00 +25°C° 0 mm 1 m/s 739 mmHg 88%
    23:00 +23°C° 0 mm 0 m/s 739 mmHg 89%

    Mâine, 24 Septembrie, Luni

    Timp Temperatura Precipitaţii Vânt Presiune Umiditate
    00:00 +22°C° 0 mm 0 m/s 739 mmHg 90%
    01:00 +22°C° 0 mm 0 m/s 739 mmHg 91%
    02:00 +22°C° 0 mm 0 m/s 739 mmHg 92%
    03:00 +24°C° 0 mm 1 m/s 738 mmHg 93%
    04:00 +24°C° 0 mm 1 m/s 739 mmHg 93%
    05:00 +24°C° 0 mm 1 m/s 739 mmHg 94%
    06:00 +24°C° 0 mm 1 m/s 739 mmHg 94%
    07:00 +25°C° 0 mm 2 m/s 739 mmHg 87%
    08:00 +27°C° 0 mm 2 m/s 740 mmHg 80%
    09:00 +29°C° 0 mm 2 m/s 740 mmHg 74%
    10:00 +30°C° 0 mm 2 m/s 740 mmHg 69%
    11:00 +31°C° 0 mm 2 m/s 739 mmHg 64%
    12:00 +32°C° 0 mm 2 m/s 739 mmHg 59%
    13:00 +32°C° 0 mm 2 m/s 738 mmHg 58%
    14:00 +34°C° 0 mm 2 m/s 738 mmHg 57%
    15:00 +34°C° 0 mm 2 m/s 737 mmHg 56%
    16:00 +31°C° 0 mm 2 m/s 737 mmHg 62%
    17:00 +30°C° 0 mm 2 m/s 737 mmHg 68%
    18:00 +28°C° 0 mm 2 m/s 737 mmHg 74%
    19:00 +27°C° 0 mm 2 m/s 738 mmHg 77%
    20:00 +27°C° 0 mm 2 m/s 739 mmHg 80%
    21:00 +26°C° 0 mm 2 m/s 739 mmHg 83%
    22:00 +26°C° 0 mm 2 m/s 739 mmHg 85%
    23:00 +25°C° 0 mm 2 m/s 739 mmHg 86%

    Poimâine, 25 Septembrie, Marţi

    Timp Temperatura Precipitaţii Vânt Presiune Umiditate
    00:00 +25°C° 0 mm 2 m/s 739 mmHg 88%
    01:00 +25°C° 0.1 mm 1 m/s 738 mmHg 89%
    02:00 +24°C° 0.1 mm 1 m/s 738 mmHg 90%
    03:00 +24°C° 0.1 mm 1 m/s 738 mmHg 91%
    04:00 +24°C° 0 mm 1 m/s 738 mmHg 92%
    05:00 +24°C° 0 mm 1 m/s 738 mmHg 92%
    06:00 +24°C° 0 mm 1 m/s 738 mmHg 92%
    07:00 +25°C° 0 mm 2 m/s 739 mmHg 88%
    08:00 +26°C° 0 mm 2 m/s 739 mmHg 84%
    09:00 +28°C° 0 mm 3 m/s 740 mmHg 80%
    10:00 +29°C° 0 mm 2 m/s 739 mmHg 74%
    11:00 +30°C° 0 mm 2 m/s 739 mmHg 68%
    12:00 +32°C° 0 mm 1 m/s 739 mmHg 62%
    13:00 +32°C° 0 mm 1 m/s 738 mmHg 61%
    14:00 +32°C° 0 mm 1 m/s 737 mmHg 60%
    15:00 +32°C° 0 mm 1 m/s 737 mmHg 59%
    16:00 +31°C° 0.6 mm 1 m/s 737 mmHg 66%
    17:00 +29°C° 0.6 mm 1 m/s 737 mmHg 73%
    18:00 +28°C° 0.6 mm 1 m/s 738 mmHg 79%
    19:00 +27°C° 1.2 mm 1 m/s 738 mmHg 82%
    20:00 +27°C° 1.2 mm 1 m/s 739 mmHg 85%
    21:00 +26°C° 1.2 mm 1 m/s 739 mmHg 88%
    22:00 +26°C° 0.1 mm 1 m/s 739 mmHg 89%
    23:00 +25°C° 0.1 mm 1 m/s 739 mmHg 91%

    26 Septembrie, Miercuri

    Timp Temperatura Precipitaţii Vânt Presiune Umiditate
    00:00 +25°C° 0.1 mm 1 m/s 739 mmHg 92%
    01:00 +25°C° 0.1 mm 1 m/s 738 mmHg 93%
    02:00 +25°C° 0.1 mm 1 m/s 738 mmHg 94%
    03:00 +24°C° 0.1 mm 1 m/s 737 mmHg 95%
    04:00 +24°C° 0.1 mm 1 m/s 738 mmHg 95%
    05:00 +24°C° 0.1 mm 1 m/s 738 mmHg 95%
    06:00 +24°C° 0.1 mm 1 m/s 738 mmHg 95%
    07:00 +25°C° 0.3 mm 1 m/s 739 mmHg 93%
    08:00 +26°C° 0.3 mm 1 m/s 739 mmHg 90%
    09:00 +26°C° 0.3 mm 1 m/s 740 mmHg 88%
    10:00 +27°C° 0.1 mm 2 m/s 739 mmHg 86%
    11:00 +27°C° 0.1 mm 2 m/s 739 mmHg 83%
    12:00 +27°C° 0.1 mm 2 m/s 738 mmHg 81%
    13:00 +28°C° 0 mm 2 m/s 738 mmHg 79%
    14:00 +28°C° 0 mm 2 m/s 738 mmHg 76%
    15:00 +29°C° 0 mm 2 m/s 737 mmHg 74%
    16:00 +28°C° 0 mm 2 m/s 737 mmHg 77%
    17:00 +27°C° 0 mm 2 m/s 737 mmHg 81%
    18:00 +26°C° 0 mm 2 m/s 738 mmHg 84%
    19:00 +26°C° 0 mm 1 m/s 738 mmHg 85%
    20:00 +25°C° 0 mm 1 m/s 739 mmHg 87%
    21:00 +25°C° 0 mm 1 m/s 740 mmHg 88%
    22:00 +24°C° 0 mm 1 m/s 739 mmHg 89%
    23:00 +24°C° 0 mm 1 m/s 739 mmHg 90%

    27 Septembrie, Joi

    Timp Temperatura Precipitaţii Vânt Presiune Umiditate
    00:00 +24°C° 0 mm 1 m/s 739 mmHg 91%
    01:00 +24°C° 0 mm 1 m/s 738 mmHg 92%
    02:00 +24°C° 0 mm 1 m/s 738 mmHg 93%
    03:00 +23°C° 0 mm 1 m/s 738 mmHg 93%
    04:00 +23°C° 0 mm 1 m/s 738 mmHg 94%
    05:00 +23°C° 0 mm 1 m/s 739 mmHg 94%
    06:00 +23°C° 0 mm 1 m/s 739 mmHg 95%
    07:00 +25°C° 0 mm 2 m/s 739 mmHg 88%
    08:00 +27°C° 0 mm 2 m/s 739 mmHg 81%
    09:00 +28°C° 0 mm 3 m/s 740 mmHg 74%
    10:00 +30°C° 0 mm 3 m/s 739 mmHg 69%
    11:00 +31°C° 0 mm 3 m/s 739 mmHg 64%
    12:00 +34°C° 0 mm 3 m/s 738 mmHg 60%
    13:00 +33°C° 0.2 mm 3 m/s 738 mmHg 61%
    14:00 +32°C° 0.2 mm 2 m/s 737 mmHg 61%
    15:00 +32°C° 0.2 mm 2 m/s 737 mmHg 62%
    16:00 +30°C° 0.8 mm 2 m/s 737 mmHg 69%
    17:00 +29°C° 0.8 mm 2 m/s 737 mmHg 76%
    18:00 +27°C° 0.8 mm 2 m/s 738 mmHg 84%
    19:00 +27°C° 0 mm 2 m/s 738 mmHg 85%
    20:00 +26°C° 0 mm 2 m/s 738 mmHg 87%
    21:00 +26°C° 0 mm 2 m/s 739 mmHg 89%
    22:00 +25°C° 0 mm 2 m/s 739 mmHg 90%
    23:00 +25°C° 0 mm 2 m/s 738 mmHg 91%

    28 Septembrie, Vineri

    Timp Temperatura Precipitaţii Vânt Presiune Umiditate
    00:00 +25°C° 0 mm 2 m/s 738 mmHg 92%
    01:00 +25°C° 0 mm 2 m/s 738 mmHg 92%
    02:00 +24°C° 0 mm 2 m/s 738 mmHg 93%
    03:00 +24°C° 0 mm 2 m/s 737 mmHg 93%
    04:00 +24°C° 0 mm 1 m/s 738 mmHg 93%
    05:00 +24°C° 0 mm 1 m/s 738 mmHg 94%
    06:00 +24°C° 0 mm 1 m/s 739 mmHg 94%
    07:00 +26°C° 0.2 mm 2 m/s 739 mmHg 88%
    08:00 +27°C° 0.2 mm 2 m/s 739 mmHg 81%
    09:00 +29°C° 0.2 mm 3 m/s 740 mmHg 75%
    10:00 +30°C° 0 mm 3 m/s 739 mmHg 70%
    11:00 +33°C° 0 mm 3 m/s 738 mmHg 64%
    12:00 +34°C° 0 mm 3 m/s 738 mmHg 59%
    13:00 +34°C° 1.4 mm 2 m/s 737 mmHg 62%
    14:00 +32°C° 1.4 mm 2 m/s 737 mmHg 64%
    15:00 +32°C° 1.4 mm 2 m/s 736 mmHg 66%
    16:00 +30°C° 1.5 mm 1 m/s 736 mmHg 72%
    17:00 +29°C° 1.5 mm 1 m/s 737 mmHg 79%
    18:00 +27°C° 1.5 mm 1 m/s 737 mmHg 85%
    19:00 +27°C° 0.3 mm 1 m/s 738 mmHg 87%
    20:00 +26°C° 0.3 mm 1 m/s 738 mmHg 88%
    21:00 +26°C° 0.3 mm 1 m/s 739 mmHg 90%
    22:00 +26°C° 0.9 mm 2 m/s 738 mmHg 92%
    23:00 +25°C° 0.9 mm 2 m/s 738 mmHg 93%
    Arată mai mult